112  
ASUS45 KBOI 222210  
RWRID  
 
IDAHO REGIONAL WEATHER ROUNDUP  
NATIONAL WEATHER SERVICE BOISE ID  
400 PM MDT MON OCT 22 2018  
 
NOTE: "FAIR" INDICATES FEW OR NO CLOUDS BELOW 12000 FEET  
WITH NO SIGNIFICANT WEATHER AND/OR S TO VISIBILITY
 
 
IDZ012-014-222300-  
SOUTHWEST IDAHO  
 
 
CITY SKY/WX TMP DP RH WIND PRES REMARKS
 
BOISE MOSUNNY 71 39 31 NW6 29.96F  
CALDWELL MOSUNNY 68 41 37 NW7 29.97F  
MOUNTAIN HOME MOSUNNY 74 40 30 SE10 29.95F  

 
 
IDZ016-017-222300-  
SOUTHCENTRAL IDAHO  
 
 
CITY SKY/WX TMP DP RH WIND PRES REMARKS
 
BURLEY CLOUDY 68 42 38 E8 30.02S  
JEROME CLOUDY 70 39 32 E10 30.01F  
TWIN FALLS CLOUDY 66 44 45 E9 30.00F  

 
 
IDZ019>023-222300-  
SOUTHEAST IDAHO  
 
 
CITY SKY/WX TMP DP RH WIND PRES REMARKS
 
IDAHO FALLS MOSUNNY 65 35 33 NW7 30.08F  
POCATELLO PTSUNNY 70 35 27 NE9 30.05F  
REXBURG SUNNY 69 29 22 N6 30.07F  

 
 
IDZ006-010-011-018-031-032-222300-  
CENTRAL IDAHO MOUNTAINS  
 
 
CITY SKY/WX TMP DP RH WIND PRES REMARKS
 
MCCALL MOSUNNY 67 31 26 NW6 30.02F HAZE  
HAILEY PTSUNNY 64 36 34 SE8G21 30.09F  
STANLEY N/A 57 33 40 SW5 30.13F  
SALMON SUNNY 63 29 27 CALM 30.05F  
CHALLIS MOSUNNY 64 28 25 CALM 30.08F  

 
 
IDZ002-004-006-007-026-222300-  
NORTHERN IDAHO  
 
 
CITY SKY/WX TMP DP RH WIND PRES REMARKS
 
LEWISTON SUNNY 66 37 34 CALM 29.96F  
LOWELL N/A 65 31 28 CALM 29.94F  
COEUR D'ALENE SUNNY 64 36 35 NE13 30.01F  
MULLAN PASS SUNNY 54 26 34 S6 30.12F  

 
 
 
CLICK HERE TO GO TO PREVIOUS BULLETINS.

The Nexlab ID Page Main Text Page